Location: Mesa
(33.4220°N, 111.8220°W)
Time: 19:04:22
(UTC-07:00)

N. Korean satellite - Visible Passes

Search period start: 24 January 2021 00:00
Search period end: 03 February 2021 00:00
Orbit: 452 x 502 km, 97.2° (Epoch: 24 January)

Date Brightness Start Highest point End Pass type
(mag) Time Alt. Az. Time Alt. Az. Time Alt. Az.
24 Jan 6.5 06:06:40 10° N 06:10:00 49° WNW 06:13:18 10° SSW visible
25 Jan 6.9 05:40:04 10° NNE 05:43:27 59° E 05:46:48 10° S visible
26 Jan 8.8 05:14:01 10° NE 05:16:48 23° E 05:19:35 10° SSE visible
26 Jan 8.2 06:48:06 10° NW 06:49:52 14° WNW 06:51:38 10° WSW visible
27 Jan 7.2 06:20:25 10° N 06:23:28 30° WNW 06:26:29 10° SW visible
28 Jan 6.2 05:53:32 10° N 05:56:57 81° W 06:00:20 10° SSW visible
29 Jan 7.9 05:27:09 10° NNE 05:30:20 36° E 05:33:30 10° SSE visible
30 Jan 9.5 05:01:33 10° ENE 05:03:39 15° E 05:05:44 10° SE visible
30 Jan 7.7 06:34:18 10° NNW 06:36:52 20° WNW 06:39:25 10° WSW visible
31 Jan 6.6 06:07:06 10° N 06:10:24 48° WNW 06:13:40 10° SSW visible
01 Feb 6.9 05:40:26 10° NNE 05:43:49 61° E 05:47:11 10° S visible
02 Feb 8.8 05:14:21 10° NE 05:17:10 24° E 05:19:57 10° SSE visible
02 Feb 8.2 06:48:31 10° NW 06:50:13 13° WNW 06:51:54 10° W visible
